Starlink 31619

operational
NORAD ID: 59531 Int'l Des: 2024-073 Owner: SPXS Country: US Constellation: starlink
LEOCIRCULAR

About Starlink 31619

Description loading...

Live Position

Loading 3D Globe...

Upcoming Passes

Altitude History

Altitude vs Time

uPlot chart will show altitude changes over time

Two-Line Element Set

1 59531U 24073W 25351.47533198 .00000613 00000-0 31806-4 0 9997
2 59531 43.0016 62.1805 0001524 269.1485 90.9192 15.27587910 94725
Epoch: Dec 17, 2025 • Age: 12 hours

Current Status

Altitude 482.4 km
Velocity 7.63 km/s
Sub-Earth Point 7.12°N, 157.97°E
Launch Date Apr 17, 2024
Age 1.6 years
Type internet

Technical Details

Classification Payload
Mass 730.00 kg
Dry Mass 700.00 kg
Total Mass 730.00 kg
Length 0.30 m
Diameter 4.10 m
Span 29.00 m
Shape Box + pan
Manufacturer SPXS
Bus Type Starlink V2M
Phase Status In Orbit
Owner/State SPXS/US

Large Constellations

Loading constellations...